When you browse on this site, cookies collect data to enhance your experience and personalize the content and advertising you see.
Visit our Privacy Policy to learn more. By continuing to use the site, you agree to this use of cookies and data.
  • In Latvia
  • List of Countries
  • For 7 days
  • Water Temperature
  • Weather Map
  • Weather Widgets
  • user-avatar
    Login

    Hourly Weather Canberra

    Today, 30 May, Saturday

    Time Temperature Precipitation Wind Pressure Humidity
    00:00 +5°C° 0 mm 0 mps 716 mmHg 92%
    01:00 +5°C° 0 mm 0 mps 715 mmHg 93%
    02:00 +4°C° 0 mm 0 mps 715 mmHg 92%
    03:00 +4°C° 0 mm 0 mps 715 mmHg 92%
    04:00 +4°C° 0 mm 0 mps 715 mmHg 92%
    05:00 +4°C° 0 mm 0 mps 715 mmHg 91%
    06:00 +3°C° 0 mm 0 mps 715 mmHg 91%
    07:00 +3°C° 0 mm 0 mps 715 mmHg 91%
    08:00 +7°C° 0 mm 1 mps 715 mmHg 83%
    09:00 +9°C° 0 mm 1 mps 715 mmHg 76%
    10:00 +12°C° 0 mm 2 mps 715 mmHg 68%
    11:00 +13°C° 0 mm 2 mps 715 mmHg 63%
    12:00 +14°C° 0 mm 3 mps 714 mmHg 57%
    13:00 +15°C° 0 mm 4 mps 714 mmHg 52%
    14:00 +15°C° 0 mm 4 mps 713 mmHg 56%
    15:00 +14°C° 0 mm 3 mps 713 mmHg 59%
    16:00 +13°C° 0 mm 3 mps 712 mmHg 63%
    17:00 +12°C° 0 mm 3 mps 712 mmHg 72%
    18:00 +10°C° 0 mm 2 mps 712 mmHg 81%
    19:00 +9°C° 0 mm 1 mps 712 mmHg 90%
    20:00 +8°C° 0 mm 1 mps 712 mmHg 91%
    21:00 +8°C° 0 mm 1 mps 711 mmHg 92%
    22:00 +8°C° 0 mm 1 mps 711 mmHg 93%
    23:00 +7°C° 0 mm 2 mps 711 mmHg 93%

    Tomorrow, 31 May, Sunday

    Time Temperature Precipitation Wind Pressure Humidity
    00:00 +7°C° 0 mm 2 mps 711 mmHg 93%
    01:00 +7°C° 0 mm 2 mps 710 mmHg 94%
    02:00 +7°C° 0 mm 2 mps 710 mmHg 93%
    03:00 +8°C° 0 mm 3 mps 710 mmHg 93%
    04:00 +8°C° 0 mm 3 mps 709 mmHg 93%
    05:00 +8°C° 0 mm 3 mps 709 mmHg 93%
    06:00 +8°C° 0 mm 3 mps 709 mmHg 93%
    07:00 +8°C° 0 mm 3 mps 709 mmHg 93%
    08:00 +8°C° 0 mm 4 mps 709 mmHg 85%
    09:00 +10°C° 0 mm 4 mps 710 mmHg 77%
    10:00 +12°C° 0 mm 5 mps 710 mmHg 69%
    11:00 +12°C° 0.1 mm 5 mps 709 mmHg 66%
    12:00 +13°C° 0.1 mm 5 mps 709 mmHg 63%
    13:00 +13°C° 0.1 mm 5 mps 708 mmHg 60%
    14:00 +13°C° 0 mm 5 mps 708 mmHg 61%
    15:00 +13°C° 0 mm 4 mps 707 mmHg 63%
    16:00 +12°C° 0 mm 4 mps 707 mmHg 65%
    17:00 +11°C° 0 mm 3 mps 707 mmHg 70%
    18:00 +10°C° 0 mm 3 mps 707 mmHg 74%
    19:00 +9°C° 0 mm 3 mps 707 mmHg 79%
    20:00 +9°C° 0 mm 3 mps 707 mmHg 81%
    21:00 +8°C° 0 mm 2 mps 706 mmHg 84%
    22:00 +8°C° 0 mm 2 mps 706 mmHg 86%
    23:00 +8°C° 0 mm 3 mps 705 mmHg 85%

    Day after tomorrow, 1 June, Monday

    Time Temperature Precipitation Wind Pressure Humidity
    00:00 +8°C° 0 mm 3 mps 705 mmHg 84%
    01:00 +8°C° 0 mm 3 mps 704 mmHg 84%
    02:00 +8°C° 0 mm 3 mps 704 mmHg 84%
    03:00 +7°C° 0 mm 4 mps 703 mmHg 84%
    04:00 +7°C° 0 mm 4 mps 703 mmHg 84%
    05:00 +6°C° 0 mm 4 mps 702 mmHg 86%
    06:00 +7°C° 0 mm 3 mps 702 mmHg 88%
    07:00 +5°C° 0 mm 3 mps 702 mmHg 90%
    08:00 +6°C° 0 mm 4 mps 702 mmHg 85%
    09:00 +8°C° 0 mm 6 mps 702 mmHg 80%
    10:00 +9°C° 0 mm 7 mps 702 mmHg 75%
    11:00 +8°C° 0.4 mm 7 mps 702 mmHg 81%
    12:00 +7°C° 0.4 mm 6 mps 701 mmHg 87%
    13:00 +5°C° 0.4 mm 6 mps 701 mmHg 93%
    14:00 +5°C° 0.5 mm 6 mps 701 mmHg 93%
    15:00 +5°C° 0.5 mm 6 mps 702 mmHg 94%
    16:00 +4°C° 0.5 mm 6 mps 702 mmHg 94%
    17:00 +5°C° 0.1 mm 5 mps 703 mmHg 93%
    18:00 +4°C° 0.1 mm 4 mps 703 mmHg 92%
    19:00 +4°C° 0.1 mm 4 mps 704 mmHg 91%
    20:00 +4°C° 0.3 mm 3 mps 705 mmHg 91%
    21:00 +5°C° 0.3 mm 2 mps 705 mmHg 92%
    22:00 +5°C° 0.3 mm 1 mps 706 mmHg 93%
    23:00 +5°C° 0 mm 1 mps 706 mmHg 94%

    2 June, Tuesday

    Time Temperature Precipitation Wind Pressure Humidity
    00:00 +4°C° 0 mm 1 mps 706 mmHg 95%
    01:00 +3°C° 0 mm 1 mps 707 mmHg 96%
    02:00 +3°C° 0 mm 1 mps 707 mmHg 96%
    03:00 +2°C° 0 mm 1 mps 707 mmHg 95%
    04:00 +2°C° 0 mm 1 mps 707 mmHg 95%
    05:00 +1°C° 0 mm 1 mps 707 mmHg 95%
    06:00 +1°C° 0 mm 1 mps 708 mmHg 94%
    07:00 +1°C° 0 mm 1 mps 709 mmHg 94%
    08:00 +2°C° 0 mm 2 mps 709 mmHg 89%
    09:00 +4°C° 0 mm 2 mps 710 mmHg 83%
    10:00 +6°C° 0 mm 2 mps 711 mmHg 77%
    11:00 +8°C° 0 mm 2 mps 711 mmHg 70%
    12:00 +9°C° 0 mm 2 mps 711 mmHg 62%
    13:00 +12°C° 0 mm 2 mps 711 mmHg 54%
    14:00 +12°C° 0 mm 2 mps 711 mmHg 57%
    15:00 +10°C° 0 mm 2 mps 711 mmHg 61%
    16:00 +10°C° 0 mm 2 mps 711 mmHg 64%
    17:00 +8°C° 0 mm 2 mps 711 mmHg 72%
    18:00 +7°C° 0 mm 1 mps 711 mmHg 81%
    19:00 +5°C° 0 mm 1 mps 712 mmHg 89%
    20:00 +5°C° 0 mm 1 mps 712 mmHg 90%
    21:00 +4°C° 0 mm 1 mps 712 mmHg 91%
    22:00 +4°C° 0 mm 1 mps 712 mmHg 92%
    23:00 +3°C° 0 mm 1 mps 712 mmHg 93%

    3 June, Wednesday

    Time Temperature Precipitation Wind Pressure Humidity
    00:00 +3°C° 0 mm 1 mps 712 mmHg 94%
    01:00 +3°C° 0 mm 1 mps 712 mmHg 95%
    02:00 +3°C° 0 mm 1 mps 712 mmHg 95%
    03:00 +3°C° 0 mm 1 mps 712 mmHg 95%
    04:00 +3°C° 0 mm 1 mps 712 mmHg 96%
    05:00 +1°C° 0 mm 0 mps 713 mmHg 96%
    06:00 +1°C° 0 mm 0 mps 713 mmHg 96%
    07:00 +1°C° 0 mm 0 mps 714 mmHg 96%
    08:00 +3°C° 0 mm 0 mps 714 mmHg 89%
    09:00 +6°C° 0 mm 1 mps 715 mmHg 81%
    10:00 +9°C° 0 mm 1 mps 715 mmHg 74%
    11:00 +10°C° 0 mm 1 mps 715 mmHg 67%
    12:00 +11°C° 0 mm 1 mps 715 mmHg 61%
    13:00 +13°C° 0 mm 2 mps 715 mmHg 54%
    14:00 +12°C° 0 mm 2 mps 715 mmHg 59%
    15:00 +10°C° 0 mm 2 mps 715 mmHg 64%
    16:00 +10°C° 0 mm 2 mps 715 mmHg 69%
    17:00 +9°C° 0 mm 1 mps 716 mmHg 74%
    18:00 +7°C° 0 mm 1 mps 716 mmHg 80%
    19:00 +4°C° 0 mm 0 mps 717 mmHg 86%
    20:00 +3°C° 0 mm 0 mps 717 mmHg 85%
    21:00 +4°C° 0 mm 1 mps 717 mmHg 84%
    22:00 +3°C° 0 mm 1 mps 717 mmHg 84%
    23:00 +3°C° 0 mm 1 mps 717 mmHg 84%

    4 June, Thursday

    Time Temperature Precipitation Wind Pressure Humidity
    00:00 +3°C° 0 mm 1 mps 718 mmHg 84%
    01:00 +3°C° 0 mm 1 mps 718 mmHg 84%
    02:00 +2°C° 0 mm 1 mps 718 mmHg 83%
    03:00 +2°C° 0 mm 1 mps 718 mmHg 82%
    04:00 +2°C° 0 mm 1 mps 718 mmHg 82%
    05:00 +2°C° 0 mm 1 mps 718 mmHg 80%
    06:00 +2°C° 0 mm 1 mps 718 mmHg 78%
    07:00 +1°C° 0 mm 1 mps 719 mmHg 76%
    08:00 +4°C° 0 mm 1 mps 719 mmHg 67%
    09:00 +7°C° 0 mm 1 mps 719 mmHg 57%
    10:00 +10°C° 0 mm 1 mps 720 mmHg 48%
    11:00 +11°C° 0 mm 0 mps 719 mmHg 44%
    12:00 +12°C° 0 mm 0 mps 719 mmHg 39%
    13:00 +14°C° 0 mm 0 mps 719 mmHg 35%
    14:00 +13°C° 0 mm 0 mps 718 mmHg 40%
    15:00 +12°C° 0 mm 0 mps 718 mmHg 46%
    16:00 +12°C° 0 mm 1 mps 718 mmHg 52%
    17:00 +9°C° 0 mm 0 mps 718 mmHg 59%
    18:00 +7°C° 0 mm 0 mps 718 mmHg 66%
    19:00 +4°C° 0 mm 0 mps 718 mmHg 74%
    20:00 +4°C° 0 mm 0 mps 718 mmHg 76%
    21:00 +4°C° 0 mm 0 mps 718 mmHg 77%
    22:00 +3°C° 0 mm 0 mps 719 mmHg 79%
    23:00 +3°C° 0 mm 0 mps 718 mmHg 80%
    Show more